{"data":{"norad_id":66666,"epoch":"2026-05-25T03:18:38.226816Z","epoch_age_seconds":53368,"freshness":"FRESH","line1":"1 66666U 25276A   26145.13794244  .00001241  00000+0  10167-3 0  9999","line2":"2 66666  97.6548 219.7278 0006630   1.5573 358.5670 15.01077294 26607","mean_motion":15.01077294,"eccentricity":0.000663,"inclination_deg":97.6548,"raan_deg":219.7278,"arg_perigee_deg":1.5573,"mean_anomaly_deg":358.567,"bstar":0.00010167,"rev_number":2660,"period_min":95.93110266579,"perigee_km":558.97071731996,"apogee_km":568.17542487423,"semimajor_km":6941.7100710971,"source":"CELESTRAK","updated_at":"2026-05-25T13:38:06.383623Z"}}